Location: Chilton Park
(37.7711°N, 100.0276°W)
Time: 05:15:06
(UTC+00:00)

Cosmos 2297 Rocket - Visible Passes

Search period start: 28 June 2022 00:00
Search period end: 08 July 2022 00:00
Orbit: 840 x 842 km, 71.0° (Epoch: 27 June)

Date Brightness Start Highest point End Pass type
(mag) Time Alt. Az. Time Alt. Az. Time Alt. Az.
28 Jun 4.3 08:43:02 10° SE 08:46:33 18° E 08:50:13 10° ENE visible
28 Jun 2.5 10:24:52 12° SW 10:30:03 56° WNW 10:35:37 10° NNE visible
29 Jun 4.3 08:28:34 12° SE 08:31:26 17° E 08:34:54 10° ENE visible
29 Jun 2.4 10:10:23 16° SW 10:14:53 59° WNW 10:20:29 10° NNE visible
30 Jun 4.3 08:14:03 13° SE 08:16:18 16° E 08:19:33 10° ENE visible
30 Jun 2.3 09:55:52 20° SW 09:59:43 63° WNW 10:05:20 10° NNE visible
01 Jul 4.3 07:59:29 13° ESE 08:01:11 15° E 08:04:10 10° ENE visible
01 Jul 2.3 09:41:18 26° SW 09:44:33 67° WNW 09:50:11 10° NNE visible
02 Jul 4.3 07:44:53 13° ESE 07:46:04 14° E 07:48:47 10° ENE visible
02 Jul 2.2 09:26:42 32° SW 09:29:23 71° WNW 09:35:02 10° NNE visible
03 Jul 4.4 07:30:15 13° ESE 07:30:57 13° E 07:33:20 10° ENE visible
03 Jul 2.2 09:12:03 39° SW 09:14:13 75° WNW 09:19:53 10° NNE visible
04 Jul 4.5 07:15:34 12° E 07:15:49 12° E 07:17:50 10° ENE visible
04 Jul 2.1 08:57:22 47° SW 08:59:03 79° WNW 09:04:44 10° NNE visible
04 Jul 4.3 10:42:05 10° WNW 10:44:01 12° NW 10:45:59 10° NNW visible
05 Jul 4.5 07:00:51 11° E 07:00:51 11° E 07:02:12 10° E visible
05 Jul 2.1 08:42:40 57° SSW 08:43:54 84° WNW 08:49:34 10° NNE visible
05 Jul 4.3 10:26:32 10° WNW 10:28:48 12° NW 10:31:06 10° NNW visible
06 Jul 4.6 06:46:07 10° E 06:46:07 10° E 06:46:15 10° E visible
06 Jul 2.0 08:27:55 67° SSW 08:28:44 88° WNW 08:34:25 10° NNE visible
06 Jul 4.3 10:11:02 10° WNW 10:13:35 13° NW 10:16:10 10° NNW visible
07 Jul 2.0 08:13:08 77° S 08:13:35 87° ESE 08:19:15 10° NNE visible
07 Jul 4.3 09:55:34 10° W 09:58:23 14° NW 10:01:12 10° NNW visible
